Location: Fuglau
(48.6333°N, 15.5500°E)
Time: 20:00:57
(UTC+00:00)

STARLINK-1046 - Pass Details

Date: 27 February 2020
Orbit: 549 x 550 km, 53.0° (Epoch: 05 April)

Event Time Altitude Azimuth Distance (km) Brightness Sun altitude
Rises 18:29:42 0° 246° (WSW) 2,710 8.1 -19.3°
Reaches altitude 10° 18:31:56 10° 247° (WSW) 1,819 7.1 -19.6°
Maximum altitude 18:36:04 84° 337° (NNW) 558 3.5 -20.3°
Enters shadow 18:36:58 54° 57° (ENE) 673 3.7 -20.5°
